TimeEST,TemperatureF,Dew PointF,Humidity,Sea Level PressureIn,VisibilityMPH,Wind Direction,Wind SpeedMPH,Gust SpeedMPH,PrecipitationIn,Events,Conditions,WindDirDegrees,DateUTC
12:41 AM,35.6,33.8,93,29.76,4.0,NE,19.6,-,N/A,,Overcast,40,2013-02-24 05:41:00
12:56 AM,36.0,34.0,93,29.75,5.0,NE,16.1,-,N/A,,Overcast,40,2013-02-24 05:56:00
1:56 AM,36.0,34.0,93,29.75,5.0,NNE,11.5,-,N/A,,Overcast,20,2013-02-24 06:56:00
2:56 AM,35.1,33.1,92,29.73,8.0,North,11.5,-,N/A,,Overcast,10,2013-02-24 07:56:00
3:56 AM,35.1,33.1,92,29.72,7.0,North,11.5,-,N/A,,Overcast,350,2013-02-24 08:56:00
4:56 AM,35.1,33.1,92,29.74,9.0,NNW,12.7,-,N/A,,Overcast,340,2013-02-24 09:56:00
5:56 AM,35.1,33.1,92,29.71,10.0,North,13.8,-,N/A,,Overcast,350,2013-02-24 10:56:00
6:56 AM,36.0,33.1,89,29.72,10.0,NNW,10.4,-,N/A,,Overcast,340,2013-02-24 11:56:00
7:31 AM,35.6,33.8,93,29.72,10.0,North,11.5,-,N/A,,Overcast,350,2013-02-24 12:31:00
7:56 AM,37.0,34.0,89,29.72,10.0,North,11.5,-,N/A,,Overcast,350,2013-02-24 12:56:00
8:56 AM,39.0,34.0,82,29.72,10.0,NNW,11.5,-,N/A,,Overcast,340,2013-02-24 13:56:00
9:56 AM,39.9,34.0,79,29.72,10.0,NNW,13.8,-,N/A,,Overcast,330,2013-02-24 14:56:00
10:08 AM,39.2,33.8,81,29.72,10.0,NNW,15.0,-,N/A,,Overcast,330,2013-02-24 15:08:00
10:56 AM,41.0,34.0,76,29.72,10.0,NNW,12.7,-,N/A,,Overcast,340,2013-02-24 15:56:00
11:56 AM,42.1,35.1,76,29.72,10.0,NW,15.0,-,N/A,,Mostly Cloudy,320,2013-02-24 16:56:00
12:56 PM,43.0,34.0,71,29.71,10.0,NNW,11.5,-,N/A,,Overcast,330,2013-02-24 17:56:00
1:56 PM,43.0,34.0,71,29.70,10.0,NW,15.0,24.2,N/A,,Overcast,320,2013-02-24 18:56:00
2:56 PM,44.1,34.0,68,29.71,10.0,NNW,15.0,21.9,N/A,,Overcast,330,2013-02-24 19:56:00
3:53 PM,44.6,33.8,66,29.72,10.0,NNW,12.7,-,N/A,,Mostly Cloudy,340,2013-02-24 20:53:00
3:56 PM,44.1,33.1,65,29.72,10.0,NNW,12.7,-,N/A,,Mostly Cloudy,340,2013-02-24 20:56:00
4:56 PM,42.1,28.9,60,29.75,10.0,NW,15.0,24.2,N/A,,Overcast,310,2013-02-24 21:56:00
5:51 PM,39.2,26.6,61,29.79,10.0,NW,15.0,-,N/A,,Overcast,310,2013-02-24 22:51:00
5:56 PM,39.9,26.1,58,29.79,10.0,NW,11.5,-,N/A,,Overcast,310,2013-02-24 22:56:00
6:56 PM,39.0,26.1,60,29.83,10.0,NW,13.8,20.7,N/A,,Overcast,320,2013-02-24 23:56:00
7:56 PM,35.1,27.0,72,29.86,10.0,NW,15.0,24.2,N/A,,Overcast,310,2013-02-25 00:56:00
8:56 PM,34.0,26.1,73,29.89,7.0,NW,15.0,23.0,0.00,Snow,Light Snow,320,2013-02-25 01:56:00
9:15 PM,33.8,26.6,75,29.90,3.0,NW,12.7,-,0.00,Snow,Light Snow,320,2013-02-25 02:15:00
9:28 PM,33.8,28.4,81,29.90,2.0,NW,13.8,20.7,0.00,Snow,Light Snow,320,2013-02-25 02:28:00
9:49 PM,33.8,28.4,81,29.90,2.0,NNW,13.8,-,0.00,Snow,Light Snow,330,2013-02-25 02:49:00
9:56 PM,33.1,28.0,82,29.91,2.0,NNW,13.8,-,0.00,Snow,Light Snow,330,2013-02-25 02:56:00
10:49 PM,32.0,28.4,87,29.90,7.0,NW,12.7,-,0.00,Snow,Light Snow,320,2013-02-25 03:49:00
10:56 PM,32.0,28.0,85,29.91,9.0,NW,12.7,-,0.00,,Mostly Cloudy,320,2013-02-25 03:56:00
11:56 PM,33.1,27.0,78,29.92,10.0,NW,9.2,-,N/A,,Mostly Cloudy,320,2013-02-25 04:56:00